Wheeler AAF, HI

11:29 AM HST on June 22, 2017 (GMT -1000)
Wheeler Army Air Field

Weather History for PHHI - November, 2012

Change the Weather History Date:

Thursday, November 8, 2012

  Actual Average Record
Temperature  
Mean Temperature 72 °F -  
Max Temperature 79 °F 77 °F 81 °F (2007)
Min Temperature 65 °F 66 °F 62 °F (2014)
Cooling Degree Days 7    
Growing Degree Days 22 (Base 50)    
Moisture  
Dew Point 64 °F    
Average Humidity 76    
Maximum Humidity 91    
Minimum Humidity 59    
Precipitation  
Precipitation 0.00 in - - ()
Sea Level Pressure  
Sea Level Pressure 30.04 in    
Wind  
Wind Speed 6 mph (NNE)    
Max Wind Speed 14 mph    
Max Gust Speed 21 mph    
Visibility 10 miles    
Events Rain    
Averages and records for this station are not official NWS values.
T = Trace of Precipitation, MM = Missing Value Source: NWS Daily Summary

Daily Weather History Graph

Daily Weather History Graph

Search for Another Location

Airport or City:

Trip Planner

Search our weather history database for the weather conditions in past years. The results will help you decide how hot, cold, wet, or windy it might be!

Date:

Astronomy

Nov. 08, 2012 Rise Set
Actual Time 6:39 AM HST 5:52 PM HST
Civil Twilight 6:16 AM HST 6:15 PM HST
Nautical Twilight 5:49 AM HST 6:42 PM HST
Astronomical Twilight 5:23 AM HST 7:08 PM HST
Moon 1:27 AM HST (11/8) 2:03 PM HST (11/8)
Length of Visible Light 11h 59m
Length of Day
11h 12m
Waning Crescent, 31% of the Moon is Illuminated
Nov 8
Waning Crescent
Nov 13
New
Nov 20
First Quarter
Nov 28
Full
Dec 6
Last Quarter

Hourly Weather History & Observations

Time (HST) Temp. Dew Point Humidity Pressure Visibility Wind Dir Wind Speed Gust Speed Precip Events Conditions
12:55 AM 66.2 °F 62.4 °F 88% 30.03 in 10.0 mi WNW 4.6 mph - N/A   Partly Cloudy
1:13 AM 66.2 °F 62.6 °F 88% 30.04 in 10.0 mi WNW 4.6 mph - N/A   Mostly Cloudy
1:15 AM 66.2 °F 62.6 °F 88% 30.03 in 10.0 mi WNW 5.8 mph - N/A Rain Light Rain
1:27 AM 66.2 °F 62.6 °F 88% 30.03 in 10.0 mi NW 3.5 mph - N/A   Mostly Cloudy
1:29 AM 66.2 °F 62.6 °F 88% 30.03 in 10.0 mi NW 3.5 mph - N/A   Light Drizzle
1:39 AM 66.2 °F 62.6 °F 88% 30.03 in 10.0 mi West 3.5 mph - N/A   Scattered Clouds
1:55 AM 66.2 °F 63.0 °F 89% 30.02 in 10.0 mi WNW 3.5 mph - 0.00 in   Partly Cloudy
2:55 AM 66.9 °F 63.9 °F 90% 30.01 in 10.0 mi West 3.5 mph - N/A   Clear
3:55 AM 66.9 °F 63.5 °F 89% 30.01 in 10.0 mi West 3.5 mph - N/A   Partly Cloudy
4:55 AM 65.7 °F 63.0 °F 91% 30.02 in 10.0 mi Calm Calm - N/A   Clear
5:55 AM 68.2 °F 64.6 °F 88% 30.03 in 10.0 mi Variable 4.6 mph - N/A   Mostly Cloudy
6:55 AM 67.5 °F 63.9 °F 88% 30.05 in 10.0 mi Variable 5.8 mph - N/A   Clear
7:10 AM 69.8 °F 64.4 °F 83% 30.05 in 10.0 mi ENE 5.8 mph - N/A   Light Drizzle
7:19 AM 69.8 °F 64.4 °F 83% 30.06 in 10.0 mi ENE 4.6 mph - N/A   Scattered Clouds
7:55 AM 70.0 °F 64.9 °F 84% 30.06 in 10.0 mi WNW 3.5 mph - 0.00 in   Clear
8:55 AM 73.6 °F 65.8 °F 77% 30.07 in 10.0 mi NE 11.5 mph - N/A   Scattered Clouds
9:55 AM 76.6 °F 64.6 °F 66% 30.09 in 10.0 mi ENE 12.7 mph - N/A   Clear
10:55 AM 77.5 °F 63.9 °F 63% 30.08 in 10.0 mi ENE 13.8 mph - N/A   Clear
11:55 AM 78.6 °F 64.2 °F 61% 30.06 in 10.0 mi East 12.7 mph - N/A   Clear
12:55 PM 79.0 °F 63.5 °F 59% 30.04 in 10.0 mi East 12.7 mph - N/A   Clear
1:55 PM 78.8 °F 63.7 °F 60% 30.01 in 10.0 mi ENE 8.1 mph 20.7 mph N/A   Clear
2:55 PM 78.8 °F 64.0 °F 60% 30.01 in 10.0 mi East 6.9 mph 16.1 mph N/A   Clear
3:55 PM 78.1 °F 64.2 °F 62% 30.01 in 10.0 mi ESE 10.4 mph - N/A   Mostly Cloudy
3:57 PM 78.8 °F 64.4 °F 61% 30.01 in 10.0 mi Variable 5.8 mph - N/A   Scattered Clouds
4:38 PM 75.2 °F 64.4 °F 69% 30.03 in 10.0 mi Calm Calm - N/A   Mostly Cloudy
4:43 PM 75.2 °F 64.4 °F 69% 30.03 in 10.0 mi ESE 4.6 mph - N/A   Mostly Cloudy
4:46 PM 75.2 °F 64.4 °F 69% 30.03 in 10.0 mi NE 5.8 mph - N/A   Mostly Cloudy
4:50 PM 75.2 °F 64.4 °F 69% 30.03 in 10.0 mi ENE 9.2 mph - N/A   Scattered Clouds
4:55 PM 75.4 °F 63.7 °F 67% 30.03 in 10.0 mi ENE 8.1 mph - N/A   Scattered Clouds
5:55 PM 74.3 °F 63.5 °F 69% 30.05 in 10.0 mi NE 9.2 mph - N/A   Clear
6:55 PM 72.9 °F 63.9 °F 73% 30.06 in 10.0 mi ENE 13.8 mph - N/A   Clear
7:55 PM 72.5 °F 63.1 °F 72% 30.08 in 10.0 mi NE 3.5 mph - N/A   Clear
8:55 PM 72.0 °F 63.1 °F 74% 30.09 in 10.0 mi NNE 9.2 mph - N/A   Clear
9:47 PM 71.6 °F 62.6 °F 73% 30.09 in 10.0 mi Variable 4.6 mph - N/A   Light Drizzle
9:55 PM 71.6 °F 63.7 °F 76% 30.09 in 10.0 mi NE 4.6 mph - 0.00 in   Light Drizzle
9:57 PM 71.6 °F 64.4 °F 78% 30.09 in 10.0 mi NNE 5.8 mph - N/A   Partly Cloudy
11:55 PM 69.4 °F 64.2 °F 83% 30.08 in 10.0 mi NNW 5.8 mph - N/A   Clear